This is the latest recevied weather packets stored in our database for station/object NK7I. If no packets are shown the sender has not sent any weather packets the latest 10 day(s).
| Time | Temp. | Humidity | Pressure | Rain* | Wind** | Luminosity | Snow |
|---|---|---|---|---|---|---|---|
| 1777739183 | 14.44° C | 58% | 1017.6 hPa | 0 mm | - | 886 W/m² | - |
| 1777738883 | 14.44° C | 56% | 1017.6 hPa | 0 mm | - | 865 W/m² | - |
| 1777738582 | 15° C | 62% | 1017.6 hPa | 0 mm | - | 793 W/m² | - |
| 1777738282 | 14.44° C | 60% | 1017.7 hPa | 0 mm | - | 677 W/m² | - |
| 1777737982 | 14.44° C | 63% | 1017.7 hPa | 0 mm | - | 557 W/m² | - |
| 1777737682 | 14.44° C | 61% | 1017.7 hPa | 0 mm | - | 508 W/m² | - |
| 1777737383 | 13.89° C | 62% | 1017.8 hPa | 0 mm | - | 510 W/m² | - |
| 1777737082 | 13.33° C | 62% | 1017.8 hPa | 0 mm | - | 531 W/m² | - |
| 1777736782 | 13.33° C | 64% | 1017.8 hPa | 0 mm | - | 561 W/m² | - |
| 1777736482 | 12.78° C | 67% | 1017.9 hPa | 0 mm | - | 575 W/m² | - |
| 1777736183 | 12.22° C | 70% | 1017.9 hPa | 0 mm | - | 580 W/m² | - |
| 1777735882 | 12.22° C | 67% | 1017.9 hPa | 0 mm | - | 555 W/m² | - |
| 1777735582 | 11.67° C | 73% | 1017.9 hPa | 0 mm | - | 485 W/m² | - |
| 1777735282 | 11.67° C | 74% | 1017.8 hPa | 0 mm | - | 508 W/m² | - |
| 1777734982 | 11.11° C | 74% | 1017.8 hPa | 0 mm | - | 557 W/m² | - |
| 1777734682 | 11.11° C | 74% | 1017.8 hPa | 0 mm | - | 571 W/m² | - |
| 1777734382 | 11.11° C | 74% | 1017.8 hPa | 0 mm | - | 272 W/m² | - |
| 1777734082 | 10.56° C | 76% | 1017.8 hPa | 0 mm | - | 338 W/m² | - |
| 1777733782 | 10.56° C | 75% | 1017.8 hPa | 0 mm | - | 338 W/m² | - |
| 1777733482 | 10° C | 77% | 1017.7 hPa | 0 mm | - | 422 W/m² | - |
| 1777733182 | 10° C | 77% | 1017.8 hPa | 0 mm | - | 367 W/m² | - |
| 1777732882 | 9.44° C | 79% | 1017.9 hPa | 0 mm | - | 295 W/m² | - |
| 1777732582 | 9.44° C | 79% | 1017.8 hPa | 0 mm | - | 190 W/m² | - |
| 1777732283 | 8.89° C | 81% | 1017.9 hPa | 0 mm | - | 195 W/m² | - |
| 1777731982 | 8.89° C | 81% | 1017.8 hPa | 0 mm | - | 178 W/m² | - |
* Rain latest hour (hover to see other rain measurements)
** Current wind speed in m/s (hover to see current wind gust speed)